This demonstration page uses our WeatherBlox Daily Observations layout. Learn more.

Left ArrowRight Arrow

Hourly Observations for May 24, 2022

Temp ( °F °C ) Dew Point ( °F °C ) Humidity (%) Winds ( mph kmh ) Pressure ( in mb ) Visibility ( mi km ) Precip ( " mm )
12:53 am 00:53 Clear 54 12.2 50 10 87 87 ENE 6 9 30.17 1022 10 16 0.00 0.00
1:53 am 01:53 Clear 55 12.8 51 10.6 87 87 ENE 8 13 30.15 1021 10 16 0.00 0.00
2:53 am 02:53 Clear 54 12.2 50 10 87 87 Calm 30.16 1021 10 16 0.00 0.00
3:53 am 03:53 Mostly Cloudy 53 11.7 48 8.9 83 83 VRB 5 7 30.16 1021 10 16 0.00 0.00
4:53 am 04:53 Mostly Cloudy 52 11.1 47 8.3 83 83 Calm 30.18 1022 10 16 0.00 0.00
5:53 am 05:53 Clear 51 10.6 47 8.3 86 86 Calm 30.18 1022 10 16 0.00 0.00
6:53 am 06:53 Sunny 51 10.6 46 7.8 83 83 NE 3 6 30.17 1022 10 16 0.00 0.00
7:53 am 07:53 Sunny 55 12.8 46 7.8 72 72 VRB 3 6 30.19 1023 10 16 0.00 0.00
8:53 am 08:53 Sunny 58 14.4 47 8.3 67 67 NE 6 9 30.20 1023 10 16 0.00 0.00
9:53 am 09:53 Sunny 61 16.1 48 8.9 63 63 NE 7 11 30.20 1023 10 16 0.00 0.00
10:53 am 10:53 Sunny 64 17.8 51 10.6 63 63 E 7 11 30.20 1023 10 16 0.00 0.00
11:53 am 11:53 Sunny 67 19.4 52 11.1 59 59 NE 8 13 30.19 1022 10 16 0.00 0.00
12:53 pm 12:53 Sunny 69 20.6 53 11.7 57 57 E 9 15 30.18 1022 10 16 0.00 0.00
1:53 pm 13:53 Sunny 71 21.7 54 12.2 55 55 ESE 5 7 30.16 1021 10 16 0.00 0.00
2:53 pm 14:53 Sunny 72 22.2 53 11.7 52 52 E 12 19 30.14 1021 10 16 0.00 0.00
3:53 pm 15:53 Sunny 74 23.3 55 12.8 52 52 E 8 13 30.13 1020 10 16 0.00 0.00
4:53 pm 16:53 Sunny 75 23.9 56 13.3 52 52 E 9 15 30.11 1020 10 16 0.00 0.00
5:53 pm 17:53 Sunny 74 23.3 56 13.3 54 54 E 6 9 30.11 1020 10 16 0.00 0.00
6:53 pm 18:53 Sunny 74 23.3 57 13.9 56 56 E 8 13 30.10 1019 10 16 0.00 0.00
7:53 pm 19:53 Sunny 73 22.8 58 14.4 59 59 E 6 9 30.10 1019 10 16 0.00 0.00
8:53 pm 20:53 Mostly Clear 71 21.7 58 14.4 63 63 E 6 9 30.10 1019 10 16 0.00 0.00
9:53 pm 21:53 Clear 69 20.6 59 15 70 70 E 6 9 30.11 1020 10 16 0.00 0.00
10:53 pm 22:53 Clear 68 20 59 15 73 73 ESE 6 9 30.12 1020 10 16 0.00 0.00
11:53 pm 23:53 Clear 66 18.9 60 15.6 81 81 E 7 11 30.13 1020 10 16 0.00 0.00

Powered by AerisWeather